This demonstration page uses our WeatherBlox Daily Observations layout. Learn more.

Left ArrowRight Arrow

39.92423, -83.80882

Hourly Observations for January 23, 2017

Temp ( °F °C ) Dew Point ( °F °C ) Humidity (%) Winds ( mph kmh ) Pressure ( in mb ) Visibility ( mi km ) Precip ( " mm )
12:56 am 00:56 Mostly Cloudy 52 11.1 48 8.9 86 86 NNE 15 24 29.44 997 10 16.0934 0 0.0254
1:56 am 01:56 Cloudy 51 10.6 47 8.3 86 86 NE 14 22 29.44 997 10 16.0934 0 0
2:56 am 02:56 Cloudy 50 10 47 8.3 89 89 NNE 15 24 29.45 997 10 16.0934 0 0
3:56 am 03:56 Cloudy with Light Rain 48 8.9 46 7.8 93 93 NNE 15 24 29.45 997 5 8.0467 0.01 0.254
4:35 am 04:35 Cloudy 46 8 45 7 93 93 NNE 14 22 29.47 998 7 11.26538 0 0.0254
4:44 am 04:44 Cloudy 46 8 45 7 93 93 NNE 13 20 29.47 998 7 11.26538 0 0.0254
4:56 am 04:56 Cloudy 47 8.3 45 7.2 93 93 NNE 14 22 29.45 997 7 11.26538 0 0.0254
5:49 am 05:49 Cloudy with Light Rain 45 7 45 7 100 100 N 14 22 29.47 998 5 8.0467 0 0.0254
5:56 am 05:56 Cloudy with Light Rain 45 7.2 44 6.7 97 97 N 13 20 29.46 998 5 8.0467 0 0.0254
6:56 am 06:56 Cloudy with Light Rain 43 6.1 43 6.1 100 100 N 13 20 29.48 998 4 6.43736 0.01 0.254
7:41 am 07:41 Cloudy with Light Rain 43 6 43 6 100 100 N 15 24 29.53 1000 5 8.0467 0.01 0.254
7:56 am 07:56 Cloudy with Light Rain 42 5.6 42 5.6 100 100 N 14 22 29.5 999 5 8.0467 0.01 0.254
8:56 am 08:56 Cloudy with Light Rain 43 6.1 42 5.6 97 97 N 14 22 29.52 1000 6 9.65604 0.01 0.254
9:56 am 09:56 Cloudy with Light Rain 44 6.7 43 6.1 96 96 N 12 19 29.54 1000 2.5 4.02335 0 0.0254
10:11 am 10:11 Cloudy with Light Rain 45 7 45 7 100 100 N 14 22 29.56 1001 3 4.82802 0 0.0254
10:20 am 10:20 Cloudy with Light Rain 45 7 45 7 100 100 N 14 22 29.56 1001 2.5 4.02335 0 0.0254
10:36 am 10:36 Cloudy with Light Rain 45 7 45 7 100 100 N 14 22 29.56 1001 3 4.82802 0 0.0254
10:56 am 10:56 Cloudy with Light Rain 45 7.2 44 6.7 97 97 N 14 22 29.56 1001 3 4.82802 0 0.0254
11:56 am 11:56 Cloudy with Light Rain 46 7.8 45 7.2 96 96 N 14 22 29.55 1001 4 6.43736 0.01 0.254
12:44 pm 12:44 Cloudy 46 8 46 8 100 100 N 14 22 29.56 1001 10 16.0934 0 0.0254
12:56 pm 12:56 Cloudy 47 8.3 46 7.8 97 97 N 16 26 29.54 1000 10 16.0934 0 0.0254
1:19 pm 13:19 Cloudy 46 8 46 8 100 100 N 13 20 29.56 1001 10 16.0934 0 0
1:48 pm 13:48 Cloudy 48 9 46 8 94 94 N 13 20 29.56 1001 9 14.48406 0 0
1:56 pm 13:56 Cloudy 48 8.9 46 7.8 93 93 N 14 22 29.54 1000 10 16.0934 0 0
2:31 pm 14:31 Cloudy with Light Rain 46 8 46 8 100 100 N 13 20 29.56 1001 2.5 4.02335 0 0.0254
2:41 pm 14:41 Cloudy with Light Rain 46 8 46 8 100 100 N 12 19 29.56 1001 4 6.43736 0 0.0254
2:56 pm 14:56 Cloudy 47 8.3 46 7.8 97 97 N 13 20 29.54 1000 10 16.0934 0 0.0254
3:38 pm 15:38 Cloudy with Light Rain 46 8 45 7 93 93 NNW 14 22 29.56 1001 6 9.65604 0 0.0254
3:56 pm 15:56 Cloudy with Light Rain 46 7.8 45 7.2 96 96 N 14 22 29.55 1001 9 14.48406 0 0.0254
4:29 pm 16:29 Cloudy with Light Rain 45 7 45 7 100 100 N 13 20 29.56 1001 6 9.65604 0 0.0254
4:56 pm 16:56 Cloudy with Light Rain 45 7.2 44 6.7 97 97 N 12 19 29.58 1002 3 4.82802 0 0.0254
5:12 pm 17:12 Cloudy with Light Rain 45 7 45 7 100 100 N 12 19 29.56 1001 2.5 4.02335 0 0.0254
5:51 pm 17:51 Cloudy with Light Rain 45 7 43 6 93 93 NNW 9 15 29.59 1002 4 6.43736 0 0.0254
5:56 pm 17:56 Cloudy with Mist and Fog 44 6.7 43 6.1 96 96 NNW 14 22 29.6 1003 4 6.43736 0 0.0254
6:56 pm 18:56 Cloudy 43 6.1 42 5.6 97 97 NNW 12 19 29.62 1003 10 16.0934 0 0
7:56 pm 19:56 Cloudy with Mist and Fog 42 5.6 41 5 96 96 NNW 10 17 29.65 1004 4 6.43736 0 0
8:13 pm 20:13 Cloudy with Light Rain 43 6 41 5 93 93 NNW 10 17 29.65 1004 2.5 4.02335 0 0.0254
8:25 pm 20:25 Cloudy with Light Rain 43 6 41 5 93 93 NNW 12 19 29.65 1004 3 4.82802 0 0.0254
8:56 pm 20:56 Cloudy with Light Rain 41 5 40 4.4 96 96 NNW 15 24 29.65 1004 5 8.0467 0 0.0254
9:56 pm 21:56 Cloudy 40 4.4 39 3.9 97 97 NW 12 19 29.66 1005 10 16.0934 0 0.0254
10:56 pm 22:56 Cloudy 40 4.4 38 3.3 93 93 NNW 8 13 29.68 1005 10 16.0934 0 0.0254
11:56 pm 23:56 Cloudy with Light Rain 40 4.4 39 3.9 97 97 NNW 9 15 29.69 1006 4 6.43736 0 0.0254

Powered by AerisWeather